Weather in Toporok

Russia / Novgorod Oblast     58°33′06″N   33°28′40″E
temp.,
°C
wind,
m/s
gust,
m/s
humid.,
%
clouds,
%
prec.,
mm/h
press.,
hPa
HPBL,
m
18 september, sat
sat1800:00+2ene23905 0.0 102544
03:00+2nne118580 0.0 102610
06:00+4ne228347 0.0 102651
09:00+7ene376986 0.0 1026301
12:00+10e465379 0.0 10251581
15:00+10ene465589 0.0 10251576
18:00+7ene59725 0.0 1025625
21:00+4ene4118223 0.0 1026462
19 september, sun
sun1900:00+3ene31283100 0.0 1026391
03:00+2ene41184100 0.0 1026370
06:00+2e41386100 0.0 1026474
09:00+5e51374100 0.0 1026675
12:00+8e6958100 0.0 10261118
15:00+9ene5956100 0.0 10251278
18:00+7ene51062100 0.0 10251063
21:00+5ene41269100 0.0 1025919
20 september, mon
mon2000:00+5ene51273100 0.0 1025848
03:00+4ene51378100 0.0 1025726
06:00+3ene51382100 0.0 1025631
09:00+4ene61375100 0.0 1025696
12:00+7e6105882 0.0 10251101
15:00+8ene6952100 0.0 10241268
18:00+6ene51159100 0.0 10241157
21:00+4ene4116891 0.0 1024870
21 september, tue
tue2100:00+3ene41277100 0.0 1023638
03:00+2ne4118259 0.0 1022561
06:00+2ne4118378 0.0 1021561
09:00+3ne41186100 0.0 1020543
12:00+4ne41076100 0.1 1020640
15:00+6ene4973100 0.1 1019882
18:00+6ne4976100 0.1 1019977
21:00+4ne3897100 0.6 1019845
22 september, wed
wed2200:00+4nne3798100 0.3 1018787
03:00+4nne3798100 1.4 1018802
06:00+4nne3798100 0.6 1018729
09:00+4nne3898100 0.6 1017498
12:00+6n3795100 0.0 1017597
15:00+6n3995100 0.3 1016697
18:00+6nne3995100 0.6 1016637
21:00+6n3995100 0.9 1015430